Weather in Novosilka

Ukraine / Odesa District     47°38′12″N   29°55′33″E
temp.,
°C
wind,
m/s
gust,
m/s
humid.,
%
clouds,
%
prec.,
mm/h
press.,
hPa
HPBL,
m
15 may, sat
sat1500:00+12sw228648 0.9 100913
03:00+11wsw228927 1.0 100912
06:00+11w22905 0.0 101013
09:00+16wsw34660 0.0 1011454
12:00+20sw46495 0.0 10111683
15:00+21wsw5646100 0.0 10112226
18:00+20wnw34559 0.0 1011842
21:00+14ne227627 0.0 101214
16 may, sun
sun1600:00+13ene22830 0.0 101211
03:00+12e22875 0.0 101218
06:00+12e228899 0.0 101213
09:00+18se2363100 0.0 1012366
12:00+22ese3450100 0.0 10121199
15:00+23ese4544100 0.0 10102067
18:00+20ese3563100 0.0 1009123
21:00+17ese2262100 0.0 100813
17 may, mon
mon1700:00+16nnw2257100 0.0 100812
03:00+14n3685100 0.3 100686
06:00+14n3685100 0.3 1005169
09:00+14ne2591100 0.8 1006196
12:00+15nw3793100 3.8 1005328
15:00+16nnw3586100 4.7 1005353
18:00+15nnw378755 0.6 1004252
21:00+13wnw11895 0.6 100410
18 may, tue
tue1800:00+13s228888 0.0 100411
03:00+12s339390 0.0 100344
06:00+13s379058 0.4 1002144
09:00+17w6974100 0.4 1003643
12:00+18w676463 0.3 10051293
15:00+18wnw8105780 1.1 10061758
18:00+17wnw79604 0.1 10081623
21:00+12wnw34780 0.1 101060
19 may, wed
wed1900:00+11wnw22805 0.0 101124
03:00+10sw11845 0.0 101111
06:00+10w118118 0.0 101211
09:00+15ssw226419 0.3 1012415
12:00+18wnw445323 0.6 10121641
15:00+19nw554689 1.1 10121758
18:00+18nw3555100 0.0 1012424
21:00+15n236018 0.0 101441